EW8926 Weather Reports


Display with metric or nautical units.
time (UTC)temp
F
wind
direction
speed
MPH
gust
MPH
rain 1hr
in
rain 24hr
in
rain mn
in
humidity
%
barometer
mb
20260505083105 53 288 1.0 3.0 0.00 0.56 0.56 97 1015.0
20260505082605 53 198 1.0 5.0 0.00 0.56 0.56 97 1014.8
20260505082104 53 342 1.0 2.0 0.00 0.56 0.56 97 1014.7
20260505081603 53 342 0.0 2.0 0.00 0.56 0.56 97 1014.7
20260505081104 53 342 0.0 2.0 0.00 0.56 0.56 97 1014.7
20260505080605 53 342 0.0 0.0 0.00 0.56 0.56 97 1014.7
20260505080105 53 342 1.0 0.0 0.00 0.56 0.56 97 1014.7
20260505075604 53 342 1.0 2.0 0.00 0.56 0.56 97 1014.6
20260505075104 53 342 1.0 2.0 0.00 0.56 0.56 97 1014.6
20260505074607 53 342 1.0 2.0 0.00 0.56 0.56 97 1014.6
20260505074103 53 342 2.0 2.0 0.00 0.56 0.56 97 1014.6
20260505073604 53 342 2.0 2.0 0.00 0.56 0.56 97 1014.6
20260505073105 53 342 2.0 2.0 0.00 0.56 0.56 97 1014.6
20260505072605 53 343 2.0 2.0 0.00 0.56 0.56 97 1014.6
20260505072105 52 343 1.0 3.0 0.00 0.56 0.56 97 1014.6
20260505071614 53 314 1.0 3.0 0.00 0.56 0.56 97 1014.6
20260505071104 52 315 2.0 0.0 0.00 0.56 0.56 97 1014.7
20260505070108 52 315 2.0 3.0 0.00 0.56 0.56 96 1014.8
20260505065603 52 315 2.0 3.0 0.00 0.56 0.56 96 1014.7
20260505065104 52 315 2.0 3.0 0.00 0.56 0.56 96 1014.6
20260505064604 52 332 2.0 6.0 0.00 0.56 0.56 96 1014.6
20260505063106 52 340 1.0 5.0 0.00 0.56 0.56 96 1014.6
20260505062606 52 337 1.0 3.0 0.01 0.56 0.56 96 1014.5
20260505061604 52 52 0.0 2.0 0.03 0.56 0.56 96 1014.5
20260505061104 53 53 0.0 2.0 0.05 0.56 0.56 96 1014.4
20260505060104 53 56 1.0 2.0 0.08 0.56 0.56 96 1014.3
20260505055104 53 0 1.0 2.0 0.11 0.56 0.56 96 1014.5
20260505054604 53 0 0.0 2.0 0.13 0.56 0.56 96 1014.5
20260505053604 53 0 1.0 2.0 0.17 0.56 0.56 96 1014.1
20260505053104 53 0 1.0 2.0 0.19 0.56 0.56 96 1014.1
20260505052603 53 0 1.0 3.0 0.20 0.56 0.56 96 1014.2
20260505051607 53 303 2.0 3.0 0.23 0.54 0.54 96 1014.3
20260505051105 53 296 2.0 6.0 0.23 0.52 0.52 96 1014.4
20260505050604 53 302 2.0 6.0 0.23 0.49 0.49 96 1014.4
20260505050105 53 317 2.0 6.0 0.22 0.48 0.48 96 1014.4
20260505041603 53 311 2.0 5.0 0.14 0.30 0.30 95 1014.4
20260505041104 53 318 2.0 10.0 0.13 0.28 0.28 95 1014.5
20260505040604 53 356 2.0 5.0 0.11 0.26 0.26 95 1014.5
20260505035604 53 279 1.0 5.0 0.11 0.25 0.25 95 1014.5
20260505034604 54 178 2.0 3.0 0.09 0.22 0.22 95 1014.5
20260505033604 54 314 1.0 5.0 0.07 0.20 0.20 95 1014.4
20260505033105 54 299 2.0 2.0 0.05 0.18 0.18 94 1014.4
20260505032604 54 295 2.0 2.0 0.05 0.17 0.17 94 1014.3
20260505032104 54 306 1.0 5.0 0.05 0.16 0.16 94 1014.3
20260505031603 54 307 1.0 3.0 0.06 0.16 0.16 94 1014.3
20260505031104 54 305 1.0 2.0 0.06 0.15 0.15 94 1014.5
20260505030604 54 286 1.0 2.0 0.06 0.15 0.15 94 1014.6
20260505030104 54 190 1.0 2.0 0.06 0.14 0.14 94 1014.6
20260505025605 54 148 0.0 2.0 0.06 0.14 0.14 94 1014.7
20260505024615 54 148 1.0 1.0 0.06 0.13 0.13 93 1014.7
20260505024104 54 148 1.0 2.0 0.06 0.13 0.13 93 1014.8
20260505023604 54 148 1.0 2.0 0.08 0.13 0.13 93 1014.9
20260505022603 54 237 1.0 2.0 0.07 0.12 0.12 93 1015.0
20260505022104 54 237 1.0 2.0 0.07 0.11 0.11 92 1015.1
20260505021604 54 226 0.0 2.0 0.06 0.10 0.10 92 1015.1
20260505021104 54 159 1.0 2.0 0.05 0.09 0.09 92 1015.2
20260505020603 54 159 1.0 2.0 0.06 0.09 0.09 91 1015.2
20260505020104 54 159 1.0 2.0 0.06 0.08 0.08 91 1015.2
20260505015111 55 237 1.0 2.0 0.06 0.07 0.07 90 1015.3
20260505014606 55 163 1.0 2.0 0.07 0.07 0.07 90 1015.3
20260505014104 55 174 2.0 2.0 0.07 0.07 0.07 89 1015.4
20260505013604 55 247 2.0 2.0 0.05 0.05 0.05 88 1015.5
20260505013104 55 318 1.0 5.0 0.05 0.05 0.05 88 1015.5
20260505012604 55 259 0.0 2.0 0.05 0.05 0.05 87 1015.6
20260505012106 56 270 1.0 3.0 0.04 0.04 0.04 86 1015.6
20260505011603 56 324 1.0 2.0 0.04 0.04 0.04 86 1015.6
20260505011104 56 324 2.0 2.0 0.04 0.04 0.04 85 1015.7
20260505010604 56 324 2.0 2.0 0.03 0.03 0.03 85 1015.7
20260505010104 57 324 2.0 2.0 0.02 0.02 0.02 84 1015.7
20260505005604 57 324 2.0 3.0 0.01 0.01 0.01 82 1015.9
20260505005104 57 326 2.0 5.0 0.01 0.01 0.01 81 1016.0
20260505004604 57 315 2.0 3.0 0.00 0.00 0.00 80 1016.0
20260505004105 57 228 2.0 5.0 0.00 0.00 0.00 79 1016.2
20260505003605 58 235 2.0 3.0 0.00 0.00 0.00 78 1016.3
20260505003104 58 344 2.0 3.0 0.00 0.00 0.00 77 1016.3
20260505002604 58 74 2.0 5.0 0.00 0.00 0.00 76 1016.3
20260505002104 58 249 2.0 5.0 0.00 0.00 0.00 75 1016.3
20260505001104 58 304 1.0 5.0 0.00 0.00 0.00 73 1016.3
20260505000604 58 315 0.0 2.0 0.00 0.00 0.00 74 1016.3
20260505000104 58 315 0.0 2.0 0.00 0.00 0.00 74 1016.3
20260504235604 58 315 0.0 2.0 0.00 0.00 0.00 73 1016.2
20260504235104 59 315 1.0 2.0 0.00 0.00 0.00 73 1016.2
20260504234604 59 315 1.0 2.0 0.00 0.00 0.00 72 1016.2
20260504234103 59 315 1.0 3.0 0.00 0.00 0.00 72 1016.3
20260504233604 59 313 1.0 2.0 0.00 0.00 0.00 72 1016.4
20260504233104 59 350 1.0 3.0 0.00 0.00 0.00 72 1016.4
20260504232604 59 1 1.0 2.0 0.00 0.00 0.00 72 1016.6
20260504232104 60 288 1.0 2.0 0.00 0.00 0.00 71 1016.7
20260504231604 60 288 1.0 2.0 0.00 0.00 0.00 71 1016.7
20260504231104 60 271 2.0 2.0 0.00 0.00 0.00 70 1016.8
20260504230604 61 262 2.0 2.0 0.00 0.00 0.00 70 1016.9
20260504230106 61 264 1.0 3.0 0.00 0.00 0.00 69 1016.9
20260504225604 61 258 1.0 3.0 0.00 0.00 0.00 69 1017.0
20260504225104 61 54 2.0 2.0 0.00 0.00 0.00 68 1017.0
20260504224607 61 287 2.0 3.0 0.00 0.00 0.00 68 1017.0
20260504223604 61 158 1.0 5.0 0.00 0.00 0.00 68 1017.2
20260504223105 61 236 1.0 2.0 0.00 0.00 0.00 68 1017.2
20260504222604 61 208 0.0 2.0 0.00 0.00 0.00 68 1017.3
20260504222105 62 152 2.0 1.0 0.00 0.00 0.00 68 1017.3
20260504221604 62 152 2.0 2.0 0.00 0.00 0.00 68 1017.3
20260504221104 62 152 2.0 2.0 0.00 0.00 0.00 67 1017.4
20260504220606 62 152 2.0 3.0 0.00 0.00 0.00 67 1017.5
20260504220105 62 117 2.0 5.0 0.00 0.00 0.00 66 1017.5
20260504215605 62 163 2.0 5.0 0.00 0.00 0.00 66 1017.6
20260504215104 62 154 2.0 5.0 0.00 0.00 0.00 67 1017.6
20260504213605 62 136 2.0 5.0 0.00 0.00 0.00 67 1017.7
20260504213107 62 180 2.0 5.0 0.00 0.00 0.00 67 1017.7
20260504212604 62 158 2.0 3.0 0.00 0.00 0.00 68 1017.7
20260504212105 62 134 2.0 5.0 0.00 0.00 0.00 68 1017.7
20260504211607 62 155 2.0 5.0 0.00 0.00 0.00 68 1017.7
20260504210605 62 149 2.0 6.0 0.00 0.00 0.00 68 1017.8
20260504205606 62 143 2.0 5.0 0.00 0.00 0.00 68 1017.9
20260504205104 62 160 2.0 5.0 0.00 0.00 0.00 68 1017.9
20260504204604 62 170 2.0 5.0 0.00 0.00 0.00 68 1017.9
20260504204104 62 134 1.0 7.0 0.00 0.00 0.00 68 1018.0
20260504203604 62 167 1.0 6.0 0.00 0.00 0.00 67 1018.1
20260504203104 62 118 2.0 3.0 0.00 0.00 0.00 66 1018.1
20260504202604 62 143 2.0 3.0 0.00 0.00 0.00 66 1018.0
20260504201104 62 157 2.0 5.0 0.00 0.00 0.00 65 1018.0
20260504200104 62 145 2.0 5.0 0.00 0.00 0.00 65 1018.0
20260504195608 62 167 2.0 3.0 0.00 0.00 0.00 65 1018.1
20260504194105 62 135 2.0 3.0 0.00 0.00 0.00 65 1018.0
20260504193104 62 142 2.0 6.0 0.00 0.00 0.00 65 1017.9
20260504192604 62 164 2.0 7.0 0.00 0.00 0.00 64 1017.8
20260504192120 62 151 2.0 7.0 0.00 0.00 0.00 63 1017.7
20260504190604 62 155 2.0 5.0 0.00 0.00 0.00 62 1017.6
20260504190104 63 126 3.0 5.0 0.00 0.00 0.00 62 1017.6
20260504185604 63 165 3.0 6.0 0.00 0.00 0.00 62 1017.5
20260504185105 63 150 3.0 6.0 0.00 0.00 0.00 62 1017.5
20260504184606 63 159 2.0 5.0 0.00 0.00 0.00 61 1017.5
20260504184106 63 157 2.0 5.0 0.00 0.00 0.00 60 1017.4
20260504183604 64 146 2.0 7.0 0.00 0.00 0.00 59 1017.4
20260504183104 64 153 2.0 7.0 0.00 0.00 0.00 59 1017.4
20260504182604 64 129 2.0 5.0 0.00 0.00 0.00 58 1017.3
20260504182104 64 176 2.0 6.0 0.00 0.00 0.00 58 1017.3
20260504181606 64 142 2.0 6.0 0.00 0.00 0.00 57 1017.3
20260504180604 65 141 2.0 5.0 0.00 0.00 0.00 55 1017.3
20260504180104 65 108 2.0 5.0 0.00 0.00 0.00 54 1017.3
20260504175604 65 102 2.0 3.0 0.00 0.00 0.00 54 1017.2
20260504174604 65 173 2.0 6.0 0.00 0.00 0.00 52 1017.2
20260504174111 66 228 2.0 5.0 0.00 0.00 0.00 52 1017.1
20260504173604 66 139 2.0 5.0 0.00 0.00 0.00 51 1017.1
20260504173104 66 154 2.0 5.0 0.00 0.00 0.00 51 1017.1
20260504172604 66 151 2.0 6.0 0.00 0.00 0.00 49 1017.1
20260504172104 66 157 2.0 6.0 0.00 0.00 0.00 49 1017.1
20260504171104 67 139 2.0 6.0 0.00 0.00 0.00 48 1017.1
20260504170104 67 139 3.0 5.0 0.00 0.00 0.00 49 1017.1
20260504160104 68 160 3.0 6.0 0.00 0.00 0.00 51 1017.3
20260504150605 72 148 3.0 8.0 0.00 0.00 0.00 45 1017.4
20260504150105 71 129 3.0 7.0 0.00 0.00 0.00 46 1017.4
20260504141105 73 139 4.0 6.0 0.00 0.00 0.00 43 1017.9
20260504140611 73 147 5.0 8.0 0.00 0.00 0.00 42 1017.9
20260504130104 73 140 5.0 6.0 0.00 0.00 0.00 37 1018.5
20260504110603 70 137 3.0 8.0 0.00 0.00 0.00 50 1019.1
20260504110105 69 169 3.0 9.0 0.00 0.00 0.00 52 1019.1
20260504100104 68 113 2.0 6.0 0.00 0.00 0.00 50 1019.5
20260504090104 67 149 2.0 5.0 0.00 0.00 0.00 51 1019.4